Overview Statistics Trail Chart Weather Telemetry Raw packets
 

This is the latest recevied weather packets stored in our database for station/object W8RSN-13. If no packets are shown the sender has not sent any weather packets the latest 10 day(s).

<< 19 20 21 22 23 24 25 >>
Time Temp. Humidity Pressure Rain* Wind** Luminosity Snow
1788547169 24.44° C 54% 1016.1 hPa - - - -
1788546868 25° C 53% 1015.9 hPa - - - -
1788546568 24.44° C 54% 1016 hPa - - - -
1788546267 24.44° C 54% 1016.1 hPa - - - -
1788545966 23.89° C 56% 1016 hPa - - - -
1788545664 23.89° C 55% 1016.2 hPa - - - -
1788545364 23.89° C 54% 1016.1 hPa - - - -
1788545063 23.89° C 56% 1016.2 hPa - - - -
1788544762 23.33° C 57% 1016.4 hPa - - - -
1788544461 23.33° C 58% 1016.2 hPa - - - -
1788544160 22.78° C 58% 1016.1 hPa - - - -
1788543859 23.33° C 58% 1016.2 hPa - - - -
1788543559 22.78° C 59% 1016.2 hPa - - - -
1788543257 22.78° C 59% 1016.3 hPa - - - -
1788542957 22.78° C 60% 1016 hPa - - - -
1788542656 22.22° C 61% 1016 hPa - - - -
1788542375 22.78° C 61% 1016 hPa - - - -
1788542074 22.78° C 60% 1016.1 hPa - - - -
1788541773 21.67° C 61% 1016.1 hPa - - - -
1788541472 21.67° C 61% 1016.2 hPa - - - -
1788541171 22.22° C 61% 1016 hPa - - - -
1788540871 21.67° C 62% 1016 hPa - - - -
1788540570 21.11° C 63% 1016.1 hPa - - - -
1788540268 21.11° C 64% 1015.9 hPa - - - -
1788539968 21.11° C 65% 1015.8 hPa - - - -

* Rain since midnight (hover to see other rain measurements)
** Current wind speed in m/s (hover to see current wind gust speed)